• In Netherlands
  • List of Countries
  • For 7 days
  • Water Temperature
  • Satellite Maps
  • Weather Map
  • Weather Widgets
  • user-avatar
    Login

    Hourly Weather Ravda

    Today, 20 January, Saturday

    Time Temperature Precipitation Wind Pressure Humidity
    00:00 +3°C° 0 mm 4 mps 760 mmHg 75%
    01:00 +3°C° 0 mm 4 mps 760 mmHg 78%
    02:00 +3°C° 0 mm 4 mps 759 mmHg 82%
    03:00 +2°C° 0 mm 5 mps 759 mmHg 83%
    04:00 +2°C° 0 mm 5 mps 759 mmHg 85%
    05:00 +1°C° 0 mm 5 mps 759 mmHg 86%
    06:00 +1°C° 0 mm 5 mps 759 mmHg 85%
    07:00 +2°C° 0 mm 5 mps 758 mmHg 83%
    08:00 +2°C° 0 mm 5 mps 758 mmHg 80%
    09:00 +5°C° 0 mm 4 mps 758 mmHg 75%
    10:00 +6°C° 0 mm 4 mps 758 mmHg 70%
    11:00 +8°C° 0 mm 4 mps 758 mmHg 66%
    12:00 +8°C° 0 mm 4 mps 758 mmHg 66%
    13:00 +10°C° 0 mm 3 mps 758 mmHg 67%
    14:00 +10°C° 0 mm 3 mps 758 mmHg 67%
    15:00 +10°C° 0.1 mm 3 mps 757 mmHg 71%
    16:00 +9°C° 0.1 mm 2 mps 757 mmHg 74%
    17:00 +8°C° 0.1 mm 2 mps 757 mmHg 78%
    18:00 +8°C° 0.4 mm 3 mps 757 mmHg 81%
    19:00 +8°C° 0.4 mm 3 mps 757 mmHg 84%
    20:00 +6°C° 0.4 mm 4 mps 757 mmHg 87%
    21:00 +6°C° 1.1 mm 5 mps 757 mmHg 87%
    22:00 +4°C° 1.1 mm 6 mps 757 mmHg 87%
    23:00 +4°C° 1.1 mm 7 mps 757 mmHg 87%

    Tomorrow, 21 January, Sunday

    Time Temperature Precipitation Wind Pressure Humidity
    00:00 +3°C° 0.9 mm 6 mps 758 mmHg 88%
    01:00 +2°C° 0.9 mm 5 mps 758 mmHg 89%
    02:00 +3°C° 0.9 mm 4 mps 758 mmHg 90%
    03:00 +2°C° 0 mm 3 mps 759 mmHg 90%
    04:00 +2°C° 0 mm 3 mps 759 mmHg 89%
    05:00 +2°C° 0 mm 3 mps 760 mmHg 89%
    06:00 +3°C° 0 mm 2 mps 760 mmHg 89%
    07:00 +3°C° 0 mm 2 mps 759 mmHg 89%
    08:00 +3°C° 0 mm 2 mps 759 mmHg 88%
    09:00 +3°C° 0.1 mm 3 mps 759 mmHg 87%
    10:00 +4°C° 0.1 mm 4 mps 759 mmHg 85%
    11:00 +3°C° 0.1 mm 5 mps 759 mmHg 84%
    12:00 +5°C° 0.8 mm 5 mps 758 mmHg 87%
    13:00 +5°C° 0.8 mm 5 mps 757 mmHg 90%
    14:00 +4°C° 0.8 mm 6 mps 756 mmHg 93%
    15:00 +5°C° 1.6 mm 5 mps 756 mmHg 94%
    16:00 +5°C° 1.6 mm 5 mps 755 mmHg 95%
    17:00 +6°C° 1.6 mm 5 mps 754 mmHg 96%
    18:00 +6°C° 1.3 mm 4 mps 754 mmHg 96%
    19:00 +6°C° 1.3 mm 4 mps 753 mmHg 96%
    20:00 +7°C° 1.3 mm 3 mps 752 mmHg 96%
    21:00 +7°C° 0.4 mm 3 mps 752 mmHg 97%
    22:00 +6°C° 0.4 mm 4 mps 751 mmHg 97%
    23:00 +7°C° 0.4 mm 4 mps 751 mmHg 97%

    Day after tomorrow, 22 January, Monday

    Time Temperature Precipitation Wind Pressure Humidity
    00:00 +7°C° 0.7 mm 4 mps 750 mmHg 96%
    01:00 +7°C° 0.7 mm 5 mps 750 mmHg 96%
    02:00 +7°C° 0.7 mm 5 mps 749 mmHg 95%
    03:00 +5°C° 1.6 mm 6 mps 749 mmHg 92%
    04:00 +4°C° 1.6 mm 6 mps 748 mmHg 90%
    05:00 +3°C° 1.6 mm 7 mps 748 mmHg 87%
    06:00 +2°C° 0.3 mm 8 mps 748 mmHg 86%
    07:00 +2°C° 0.3 mm 9 mps 748 mmHg 85%
    08:00 +2°C° 0.3 mm 9 mps 749 mmHg 85%
    09:00 +2°C° 0.1 mm 10 mps 749 mmHg 84%
    10:00 +2°C° 0.1 mm 10 mps 750 mmHg 82%
    11:00 +2°C° 0.1 mm 11 mps 750 mmHg 81%
    12:00 +1°C° 0 mm 11 mps 751 mmHg 80%
    13:00 0°C° 0 mm 12 mps 751 mmHg 79%
    14:00 0°C° 0 mm 13 mps 751 mmHg 78%
    15:00 0°C° 0 mm 12 mps 752 mmHg 78%
    16:00 -1°C° 0 mm 12 mps 753 mmHg 78%
    17:00 -1°C° 0 mm 12 mps 754 mmHg 78%
    18:00 -1°C° 0 mm 12 mps 755 mmHg 78%
    19:00 -2°C° 0 mm 11 mps 756 mmHg 77%
    20:00 -2°C° 0 mm 11 mps 757 mmHg 77%
    21:00 -3°C° 0 mm 10 mps 758 mmHg 78%
    22:00 -3°C° 0 mm 10 mps 759 mmHg 78%
    23:00 -3°C° 0 mm 10 mps 759 mmHg 79%

    23 January, Tuesday

    Time Temperature Precipitation Wind Pressure Humidity
    00:00 -3°C° 0 mm 10 mps 760 mmHg 79%
    01:00 -4°C° 0 mm 9 mps 760 mmHg 78%
    02:00 -4°C° 0 mm 9 mps 761 mmHg 78%
    03:00 -4°C° 0 mm 9 mps 761 mmHg 78%
    04:00 -4°C° 0 mm 9 mps 762 mmHg 77%
    05:00 -4°C° 0 mm 9 mps 762 mmHg 76%
    06:00 -4°C° 0 mm 9 mps 763 mmHg 75%
    07:00 -4°C° 0 mm 9 mps 764 mmHg 74%
    08:00 -4°C° 0 mm 9 mps 764 mmHg 72%
    09:00 -3°C° 0 mm 9 mps 765 mmHg 67%
    10:00 -3°C° 0 mm 9 mps 765 mmHg 62%
    11:00 -1°C° 0 mm 9 mps 766 mmHg 58%
    12:00 0°C° 0 mm 9 mps 766 mmHg 56%
    13:00 0°C° 0 mm 9 mps 766 mmHg 54%
    14:00 0°C° 0 mm 9 mps 766 mmHg 52%
    15:00 0°C° 0 mm 8 mps 767 mmHg 55%
    16:00 -1°C° 0 mm 8 mps 768 mmHg 57%
    17:00 -2°C° 0 mm 8 mps 768 mmHg 59%
    18:00 -2°C° 0 mm 8 mps 769 mmHg 59%
    19:00 -4°C° 0 mm 8 mps 770 mmHg 58%
    20:00 -4°C° 0 mm 8 mps 771 mmHg 58%
    21:00 -5°C° 0 mm 8 mps 771 mmHg 55%
    22:00 -4°C° 0 mm 7 mps 772 mmHg 53%
    23:00 -4°C° 0 mm 7 mps 772 mmHg 50%

    24 January, Wednesday

    Time Temperature Precipitation Wind Pressure Humidity
    00:00 -4°C° 0 mm 7 mps 772 mmHg 50%
    01:00 -6°C° 0 mm 7 mps 773 mmHg 51%
    02:00 -6°C° 0 mm 7 mps 773 mmHg 51%
    03:00 -6°C° 0 mm 7 mps 773 mmHg 52%
    04:00 -5°C° 0 mm 6 mps 774 mmHg 53%
    05:00 -5°C° 0 mm 6 mps 774 mmHg 55%
    06:00 -5°C° 0 mm 6 mps 774 mmHg 55%
    07:00 -5°C° 0 mm 6 mps 775 mmHg 55%
    08:00 -6°C° 0 mm 5 mps 775 mmHg 55%
    09:00 -4°C° 0 mm 5 mps 775 mmHg 49%
    10:00 -3°C° 0 mm 6 mps 776 mmHg 42%
    11:00 -2°C° 0 mm 6 mps 776 mmHg 35%
    12:00 -1°C° 0 mm 6 mps 776 mmHg 35%
    13:00 -1°C° 0 mm 6 mps 775 mmHg 34%
    14:00 +1°C° 0 mm 6 mps 775 mmHg 33%
    15:00 0°C° 0 mm 5 mps 775 mmHg 38%
    16:00 -1°C° 0 mm 5 mps 775 mmHg 43%
    17:00 -2°C° 0 mm 5 mps 775 mmHg 49%
    18:00 -2°C° 0 mm 5 mps 775 mmHg 54%
    19:00 -4°C° 0 mm 5 mps 775 mmHg 59%
    20:00 -5°C° 0 mm 5 mps 775 mmHg 64%
    21:00 -5°C° 0 mm 5 mps 775 mmHg 66%
    22:00 -5°C° 0 mm 5 mps 775 mmHg 69%
    23:00 -5°C° 0 mm 5 mps 775 mmHg 71%

    25 January, Thursday

    Time Temperature Precipitation Wind Pressure Humidity
    00:00 -5°C° 0 mm 5 mps 774 mmHg 71%
    01:00 -5°C° 0 mm 5 mps 774 mmHg 70%
    02:00 -5°C° 0 mm 5 mps 774 mmHg 70%
    03:00 -5°C° 0 mm 6 mps 773 mmHg 68%
    04:00 -5°C° 0 mm 6 mps 773 mmHg 65%
    05:00 -5°C° 0 mm 6 mps 773 mmHg 63%
    06:00 -5°C° 0 mm 6 mps 773 mmHg 60%
    07:00 -6°C° 0 mm 7 mps 773 mmHg 57%
    08:00 -6°C° 0 mm 7 mps 773 mmHg 54%
    09:00 -4°C° 0 mm 6 mps 773 mmHg 52%
    10:00 -4°C° 0 mm 6 mps 773 mmHg 51%
    11:00 -4°C° 0 mm 6 mps 773 mmHg 50%
    12:00 -3°C° 0 mm 6 mps 773 mmHg 51%
    13:00 -3°C° 0 mm 6 mps 772 mmHg 53%
    14:00 -2°C° 0 mm 6 mps 772 mmHg 55%
    15:00 -3°C° 0 mm 6 mps 772 mmHg 58%
    16:00 -3°C° 0 mm 6 mps 772 mmHg 62%
    17:00 -4°C° 0 mm 6 mps 772 mmHg 66%
    18:00 -4°C° 0.1 mm 6 mps 772 mmHg 68%
    19:00 -5°C° 0.1 mm 6 mps 773 mmHg 71%
    20:00 -5°C° 0.1 mm 6 mps 773 mmHg 73%
    21:00 -5°C° 0.1 mm 6 mps 773 mmHg 74%
    22:00 -5°C° 0.1 mm 6 mps 773 mmHg 75%
    23:00 -5°C° 0.1 mm 6 mps 773 mmHg 76%
    Show more